Всё
Fairy Bower Airport YFBR Погода
There is no TAF data available at YFBR or any nearby airports.
There is no METAR data available at YFBR. Showing METAR data for YCNM (10 mi ЮВ).
Недавняя история METAR для CNB (для YFBR данные отсутствуют)
| Date | Time (AEST) | Flight Rules | Wind Dir. | Speed | Type | Height AGL (ft) | Visibility | Temp (°C) | Temp (°F) | Dew Point (°C) | Dew Point (°F) | Rel. Humid. | Pressure | Density Altitude | Remarks |
|---|---|---|---|---|---|---|---|---|---|---|---|---|---|---|---|
| 04-май | 18:00 | n/a | 310° | 5 kt | Missing | 21° | 69° | 17° | 62° | 78% | 1016 mb | 1,242 ft | |||
| 04-май | 17:00 | n/a | 310° | 6 kt | Missing | 22° | 71° | 16° | 60° | 69% | 1015 mb | 1,391 ft | |||
| 04-май | 16:00 | n/a | 310° | 8 kt | Missing | 23° | 73° | 16° | 60° | 65% | 1014 mb | 1,541 ft | |||
| 04-май | 15:00 | n/a | 310° | 10 kt | Missing | 24° | 75° | 16° | 60° | 61% | 1015 mb | 1,631 ft | |||
| 04-май | 14:00 | n/a | 340° | 11 kt | Missing | 24° | 75° | 15° | 59° | 57% | 1015 mb | 1,631 ft | |||
| 04-май | 13:00 | n/a | 10° | 9 kt | Missing | 24° | 75° | 14° | 57° | 54% | 1015 mb | 1,631 ft | |||
| 04-май | 12:00 | n/a | 30° | 8 kt | Missing | 22° | 71° | 16° | 60° | 69% | 1016 mb | 1,362 ft | |||
| 04-май | 11:00 | n/a | 10° | 14 kt | Missing | 21° | 69° | 14° | 57° | 64% | 1017 mb | 1,212 ft | |||
| 04-май | 10:00 | n/a | 30° | 10 kt | Missing | 20° | 68° | 15° | 59° | 73% | 1017 mb | 1,092 ft | |||
| 04-май | 09:00 | n/a | 50° | 10 kt | Missing | 19° | 66° | 16° | 60° | 83% | 1017 mb | 972 ft | |||
| 04-май | 08:00 | n/a | 30° | 9 kt | Missing | 17° | 62° | 15° | 59° | 88% | 1017 mb | 732 ft | |||
| 04-май | 07:00 | n/a | 320° | 2 kt | Missing | 17° | 62° | 15° | 59° | 88% | 1017 mb | 732 ft | |||
| 04-май | 06:00 | n/a | 40° | 10 kt | Missing | 19° | 66° | 13° | 55° | 68% | 1016 mb | 1,002 ft | |||
| 04-май | 05:00 | n/a | 40° | 10 kt | Missing | 19° | 66° | 13° | 55° | 68% | 1015 mb | 1,031 ft | |||
| 04-май | 04:00 | n/a | 50° | 7 kt | Missing | 19° | 66° | 14° | 57° | 73% | 1016 mb | 1,002 ft | |||
| 04-май | 03:00 | n/a | 80° | 4 kt | Missing | 19° | 66° | 17° | 62° | 88% | 1016 mb | 1,002 ft | |||
| 04-май | 02:00 | n/a | 120° | 8 kt | Missing | 19° | 66° | 17° | 62° | 88% | 1017 mb | 972 ft | |||
| 04-май | 01:00 | n/a | 180° | 10 kt | Missing | 19° | 66° | 17° | 62° | 88% | 1017 mb | 972 ft | |||
| 04-май | 00:00 | n/a | 190° | 7 kt | Missing | 20° | 68° | 16° | 60° | 78% | 1018 mb | 1,062 ft | |||
| 03-май | 23:00 | n/a | 250° | 10 kt | Missing | 21° | 69° | 14° | 57° | 64% | 1018 mb | 1,182 ft | |||
| 03-май | 22:00 | n/a | 50° | 6 kt | Missing | 21° | 69° | 10° | 50° | 49% | 1017 mb | 1,212 ft | |||
| 03-май | 21:00 | n/a | 60° | 6 kt | Missing | 21° | 69° | 10° | 50° | 49% | 1017 mb | 1,212 ft | |||
| 03-май | 20:00 | n/a | 50° | 6 kt | Missing | 20° | 68° | 10° | 50° | 53% | 1017 mb | 1,092 ft | |||
| 03-май | 19:00 | n/a | 30° | 6 kt | Missing | 22° | 71° | 10° | 50° | 46% | 1017 mb | 1,332 ft |
Вход
| Ваш браузер не поддерживается.. обновите веб-браузер |
